Retour au catalogue

COSMOS 864 DEB

ActifPO
NORAD 43294·DEBRIS·🇷🇺 Russia

Lancé Oct 29, 1976 depuis Plesetsk Cosmodrome

Loading…

Prochains Passages (prochaines 24 heures)

TLE

FraisSource: Space-Track

Époque: Sep 13, 2026, 23:59 UTC

1 43294U 76108C   26256.99995672  .00000079  00000-0  65975-4 0  9993
2 43294  82.9367  82.7131 0028604 251.6363 108.1683 13.76090373637021

Suivez COSMOS 864 DEB en temps réel avec AllMySat

Download on the App Store